P/2019 M2 ( ATLAS )

Japanese version
Home page
Updated on November 9, 2019

---------------------------------------------------------------------

* Profile

Discovery Date June 29, 2019
Magnitude 18.3 mag
Discoverer Asteroid Terrestrial-Impact Last Alert System (ATLAS) search program

* Pictures

* Orbital Elements

Epoch 2019 June 6.0 TT = JDT 2458640.5
T 2019 June 22.66929 TT                                 Williams
q   1.0633972            (2000.0)            P               Q
n   0.18716616     Peri.  332.51895     +0.18416002     +0.96834375
a   3.0268054      Node   307.60594     -0.85823885     +0.07486037
e   0.6486734      Incl.   12.28085     -0.47907323     +0.23813088
P   5.27
From 280 observations 2019 June 29-Nov. 2, mean residual 0".4.

* Magnitudes Graph

        m1 = 19.8 + 5 log d + 10.0 log r(t - 85)

---------------------------------------------------------------------

The orbital elements are published on M.P.E.C. 2019-V116.
The magnitudes graphs are made with Comet for Windows.

---------------------------------------------------------------------

Copyright(C) Seiichi Yoshida (comet@aerith.net). All rights reserved.